^^
Station Historical Data
Daily Summary for September 23, 2017 Units:  Metric    English   Both
« Previous Day
Next Day »
Daily Weekly Monthly Yearly Custom
  High: Low: Average:
Temperature: 29.8 °C 20.3 °C 23.9 °C
Dew Point: 2 °C -0.3 °C 0.6 °C
Humidity: 26% 16% 22%
Wind Speed: 11.1km/h 0km/h 1.1km/h
Wind Gust: 14.5km/h - -
Wind- - East
Pressure: 1013.8 hPa 1012.8 hPa -
Precipitation: 0 mm    
Historical Graphs
 
 
Tabular Data for September 23, 2017
Time Temperature Dew Point Pressure Wind Wind Speed Wind Gust Humidity Rainfall Rate (Hourly) solar Conditions
16:13 29.3 °C 1.7 °C 1013.4 hPa Calm   9.7 km/h 17% 0 mm 410.0 W/m2
16:29 29.4 °C 1.8 °C 1013.4 hPa North 11.1 km/h 11.3 km/h 17% 0 mm 360.0 W/m2
16:44 29.7 °C 2 °C 1013.1 hPa North 3.2 km/h 9.7 km/h 17% 0 mm 323.0 W/m2
17:14 29.4 °C 1.8 °C 1012.8 hPa North 11.1 km/h 14.5 km/h 17% 0 mm 178.0 W/m2
17:38 29.7 °C 1.2 °C 1012.8 hPa Calm   8 km/h 16% 0 mm 130.0 W/m2
17:51 29.7 °C 1.2 °C 1012.8 hPa North 9.7 km/h 11.3 km/h 16% 0 mm 141.0 W/m2
18:07 29.8 °C 1.3 °C 1012.8 hPa Calm     16% 0 mm 93.0 W/m2
18:22 29.7 °C 1.2 °C 1012.8 hPa Calm     16% 0 mm 47.0 W/m2
18:47 29 °C 0.6 °C 1012.8 hPa Calm     16% 0 mm 5.0 W/m2
19:33 25.5 °C 0.2 °C 1013.4 hPa Calm     19% 0 mm 0.0 W/m2
20:07 24.2 °C 0.5 °C 1013.4 hPa Calm     21% 0 mm 0.0 W/m2
20:29 24.1 °C 0.4 °C 1013.4 hPa Calm     21% 0 mm 0.0 W/m2
20:41 24 °C 1 °C 1013.8 hPa Calm     22% 0 mm 0.0 W/m2
21:29 23.3 °C 0.4 °C 1013.8 hPa Calm     22% 0 mm 0.0 W/m2
22:04 22 °C 0.5 °C 1013.8 hPa Calm     24% 0 mm 0.0 W/m2
22:19 21.1 °C 0.3 °C 1013.8 hPa Calm     25% 0 mm 0.0 W/m2
22:27 20.9 °C 0.1 °C 1013.8 hPa Calm     25% 0 mm 0.0 W/m2
22:32 21 °C 0.2 °C 1013.8 hPa Calm     25% 0 mm 0.0 W/m2
22:38 21.2 °C 0.4 °C 1013.8 hPa Calm     25% 0 mm 0.0 W/m2
22:43 21.4 °C 0.6 °C 1013.8 hPa Calm     25% 0 mm 0.0 W/m2
22:49 21.4 °C 0 °C 1013.8 hPa Calm     24% 0 mm 0.0 W/m2
22:54 21.2 °C 0.4 °C 1013.8 hPa Calm     25% 0 mm 0.0 W/m2
22:59 21 °C 0.2 °C 1013.8 hPa Calm     25% 0 mm 0.0 W/m2
23:04 20.8 °C 0 °C 1013.8 hPa Calm     25% 0 mm 0.0 W/m2
23:19 20.4 °C -0.3 °C 1013.8 hPa Calm     25% 0 mm 0.0 W/m2
23:24 20.4 °C -0.3 °C 1013.4 hPa Calm     25% 0 mm 0.0 W/m2
23:29 20.3 °C 0.2 °C 1013.4 hPa Calm     26% 0 mm 0.0 W/m2
23:35 20.5 °C 0.3 °C 1013.4 hPa Calm     26% 0 mm 0.0 W/m2
23:45 20.6 °C 0.4 °C 1013.4 hPa Calm     26% 0 mm 0.0 W/m2
23:50 20.6 °C 0.4 °C 1013.4 hPa Calm     26% 0 mm 0.0 W/m2
23:56 20.7 °C 0.5 °C 1013.4 hPa Calm     26% 0 mm 0.0 W/m2
Canyon Roadhouse, Fishriver Canyon, Namibia
Compliments of Weather Underground - 1.75 mb